Weather History for Spokane, WA

Change the Weather History Date:

Thursday, August 22, 2013

  Actual Average Record
Temperature  
Mean Temperature 74 °F 68 °F  
Max Temperature 91 °F 82 °F 102 °F (1888)
Min Temperature 56 °F 55 °F 40 °F (1992)
Degree Days  
Heating Degree Days 0 1  
Month to date heating degree days 7 17  
Since 1 June heating degree days 147 185  
Since 1 July heating degree days 7 49  
Cooling Degree Days 9 4  
Month to date cooling degree days 187 135  
Year to date cooling degree days 549 378  
Since 1 June cooling degree days 519 364  
Growing Degree Days 26 (Base 50)    
Moisture  
Dew Point 40 °F    
Average Humidity 34    
Maximum Humidity 51    
Minimum Humidity 17    
Precipitation  
Precipitation 0.00 in 0.02 in 1.06 in (2002)
Month to date precipitation 0.64 0.41  
Year to date precipitation 7.43 9.93  
Snow  
Snow 0.00 in 0.00 in 0.00 in (2002)
Month to date snowfall 0.0 0.0  
Since 1 June snowfall 0.0 0.0  
Since 1 July snowfall 0.0 0.0  
Snow Depth 0.00 in    
Sea Level Pressure  
Sea Level Pressure 29.87 in    
Wind  
Wind Speed 5 mph (ENE)    
Max Wind Speed 23 mph    
Max Gust Speed 29 mph    
Visibility 10 miles    
Events      
T = Trace of Precipitation, MM = Missing Value Source: NWS Daily Summary

Daily Weather History Graph

Daily Weather History Graph

Search for Another Location

Airport:

Trip Planner

Search our weather history database for the weather conditions in past years. The results will help you decide how hot, cold, wet, or windy it might be!

Date:

Astronomy

Aug. 22, 2013 Rise Set
Actual Time 5:55 AM PDT 7:49 PM PDT
Civil Twilight 5:22 AM PDT 8:21 PM PDT
Nautical Twilight 4:42 AM PDT 9:02 PM PDT
Astronomical Twilight 3:57 AM PDT 9:46 PM PDT
Moon 8:20 PM PDT (8/22) 8:02 AM PDT (8/22)
Length of Visible Light 14h 59m
Length of Day
13h 53m
Waning Gibbous, 96% of the Moon is Illuminated
Aug 22
Waning Gibbous
Aug 28
Last Quarter
Sep 5
New
Sep 12
First Quarter
Sep 19
Full

Hourly Weather History & Observations

Time (PDT) Temp. Dew Point Humidity Pressure Visibility Wind Dir Wind Speed Gust Speed Precip Events Conditions
12:53 AM 64.0 °F 37.9 °F 38% 29.95 in 10.0 mi Calm Calm - N/A   Scattered Clouds
1:53 AM 64.0 °F 41.0 °F 43% 29.95 in 10.0 mi NE 4.6 mph - N/A   Scattered Clouds
2:53 AM 59.0 °F 39.9 °F 49% 29.95 in 10.0 mi Calm Calm - N/A   Mostly Cloudy
3:53 AM 57.0 °F 39.9 °F 53% 29.94 in 10.0 mi Calm Calm - N/A   Overcast
4:53 AM 61.0 °F 42.1 °F 50% 29.94 in 10.0 mi NNE 3.5 mph - N/A   Mostly Cloudy
5:53 AM 61.0 °F 41.0 °F 48% 29.94 in 10.0 mi NNE 4.6 mph - N/A   Mostly Cloudy
6:53 AM 62.1 °F 39.9 °F 44% 29.94 in 10.0 mi ENE 6.9 mph - N/A   Mostly Cloudy
7:53 AM 63.0 °F 39.9 °F 43% 29.95 in 10.0 mi NE 5.8 mph - N/A   Mostly Cloudy
8:53 AM 66.0 °F 41.0 °F 40% 29.94 in 10.0 mi NE 6.9 mph - N/A   Mostly Cloudy
9:53 AM 68.0 °F 42.1 °F 39% 29.94 in 10.0 mi NE 5.8 mph - N/A   Mostly Cloudy
10:53 AM 73.0 °F 43.0 °F 34% 29.93 in 10.0 mi ENE 5.8 mph - N/A   Scattered Clouds
11:53 AM 78.1 °F 43.0 °F 29% 29.91 in 10.0 mi NNE 5.8 mph - N/A   Scattered Clouds
12:53 PM 81.0 °F 41.0 °F 24% 29.89 in 10.0 mi Calm Calm - N/A   Mostly Cloudy
1:53 PM 84.9 °F 39.0 °F 20% 29.86 in 10.0 mi Calm Calm - N/A   Scattered Clouds
2:53 PM 87.1 °F 39.0 °F 18% 29.85 in 10.0 mi SW 3.5 mph - N/A   Mostly Cloudy
3:53 PM 90.0 °F 39.0 °F 17% 29.81 in 10.0 mi Variable 3.5 mph - N/A   Scattered Clouds
4:53 PM 90.0 °F 39.0 °F 17% 29.78 in 10.0 mi NNE 5.8 mph - N/A   Scattered Clouds
5:53 PM 90.0 °F 39.0 °F 17% 29.77 in 10.0 mi NNE 9.2 mph 27.6 mph N/A   Mostly Cloudy
6:53 PM 87.1 °F 39.9 °F 19% 29.77 in 10.0 mi East 3.5 mph - N/A   Mostly Cloudy
7:53 PM 82.9 °F 42.1 °F 24% 29.78 in 10.0 mi Calm Calm - N/A   Mostly Cloudy
8:53 PM 81.0 °F 43.0 °F 26% 29.78 in 10.0 mi SSW 3.5 mph - N/A   Overcast
9:53 PM 77.0 °F 39.9 °F 26% 29.79 in 10.0 mi South 8.1 mph - N/A   Overcast
10:53 PM 75.0 °F 37.9 °F 26% 29.81 in 10.0 mi SSW 18.4 mph - N/A   Overcast
11:53 PM 73.9 °F 44.1 °F 34% 29.80 in 10.0 mi South 8.1 mph - N/A   Overcast